Regional Weather Roundup
Issued by NWS

Home | Current Version | Previous Version | Graphics & Text | Print | Product List | Glossary Off
Versions: 1 2 3 4 5 6 7 8 9 10 11 12 13 14 15 16 17 18 19 20 21 22 23 24 25 26 27 28 29 30 31 32 33 34 35 36 37 38 39 40 41 42 43 44 45 46 47 48 49 50

000
ASUS43 KDTX 031401
RWRMI
MICHIGAN HOURLY REGIONAL WEATHER ROUNDUP
NATIONAL WEATHER SERVICE DETROIT/PONTIAC MI
1000 AM EDT MON AUG 03 2015

NOTE: "FAIR" INDICATES FEW OR NO CLOUDS BELOW 12,000 FEET WITH NO
SIGNIFICANT WEATHER AND/OR OBSTRUCTION TO VISIBILITY.

MIZ047>049-052>055-059>063-066>070-074>076-081>083-031500-
SOUTHEAST LOWER MICHIGAN

CITY           SKY/WX    TMP DP  RH WIND       PRES   REMARKS
ADRIAN         CLOUDY    66  63  90 W7        29.81S
ALMA           PTSUNNY   69  64  84 SW5       29.78F
ANN ARBOR      PTSUNNY   70  64  81 MISG      29.79S
BAD AXE        MOSUNNY   67  62  83 W7        29.76S
CARO           PTSUNNY   68  63  85 W7        29.77S
DETROIT CITY   MOSUNNY   70  61  73 W13       29.78S
DETROIT        MOSUNNY   72  62  71 SW10      29.79S
FLINT          MOSUNNY   71  61  70 SW8       29.79R
GROSSE ILE     MOSUNNY   72  63  73 SW12G17   29.77F
HILLSDALE      CLOUDY    67  65  94 W7        29.82S
HOWELL         MOSUNNY   68  62  82 W9        29.80S

CITY           SKY/WX    TMP DP  RH WIND       PRES   REMARKS
JACKSON        PTSUNNY   68  61  78 W9        29.81S
LAMBERTVILLE   MOSUNNY   71  63  77 W13       29.80S
LANSING        MOSUNNY   69  61  75 W9        29.80S
LAPEER         PTSUNNY   69  61  76 W8        29.78S
MASON          PTSUNNY   67  61  79 W7        29.80S
MONROE         PTSUNNY   70  64  81 W12       29.78F
MT. CLEMENS    PTSUNNY   70  63  78 SW13      29.76S
PONTIAC        PTSUNNY   67  62  84 W13       29.79R
PORT HURON     PTSUNNY   68  63  83 W7        29.77R
TRI CITIES     MOSUNNY   69  62  78 SW8       29.78R
MIDLAND        FAIR      70  61  72 SW3       29.76S
TROY           PTSUNNY   70  63  79 MISG      29.80S
SAGINAW HB     PTSUNNY   64  63  94 SW7       29.77S
$$
MIZ043>046-050>051-056>058-064>065-071>073-077>080-031500-
SOUTHWEST LOWER MICHIGAN

CITY           SKY/WX    TMP DP  RH WIND       PRES   REMARKS
BATTLE CREEK     N/A     67  62  84 MISG      29.82S
BENTON HARBOR  MOSUNNY   73  66  78 NW7       29.82R
BIG RAPIDS     MOSUNNY   67  65  93 W10       29.78S
COLDWATER      PTSUNNY   68  62  83 W6        29.82S
FREMONT        FAIR      69  65  88 W7        29.79S
HOLLAND        MOSUNNY   73  64  73 W8        29.81S
GRAND RAPIDS   PTSUNNY   69  64  84 W6        29.80S
IONIA          PTSUNNY   68  64  88 W5        29.79S
KALAMAZOO      PTSUNNY   70  64  81 SW7       29.82R
LUDINGTON      MOSUNNY   71  62  72 NW6       29.79R
MARSHALL       PTSUNNY   68  63  83 SW6       29.81S
MOUNT PLEASANT MOSUNNY   71  64  78 W6        29.77S
MUSKEGON       PTSUNNY   73  63  70 W7        29.80R
SOUTH HAVEN    PTSUNNY   72  65  77 W6        29.81S
$$
MIZ016>042-031500-
NORTHERN LOWER MICHIGAN

CITY           SKY/WX    TMP DP  RH WIND       PRES   REMARKS
ALPENA         MOSUNNY   69  60  73 W10       29.71S
BEAVER ISLAND  CLOUDY    64  55  74 W6        29.73S
BELLAIRE       CLOUDY    66  61  84 CALM      29.74S
CADILLAC       PTSUNNY   64  61  88 W7        29.78R
CHARLEVOIX     CLOUDY    67  56  69 W8        29.76S
FRANKFORT      CLOUDY    64  62  93 NW6       29.77R
GAYLORD        PTSUNNY   66  59  78 W7        29.75R
GRAYLING       CLOUDY    63  60  90 W8        29.76R
HARBOR SPRINGS MOSUNNY   65  57  74 W5        29.73R
HOUGHTON LAKE  CLOUDY    64  61  90 SW7       29.77S
MANISTEE       MOSUNNY   63  57  82 NW5       29.79R
OSCODA         SUNNY     69  61  75 W10       29.72S
PELLSTON       SUNNY     67  56  67 W10       29.72S
ROGERS CITY    SUNNY     68  61  78 W10       29.72R
TRAVERSE CITY  CLOUDY    66  62  87 W5        29.74R
$$
MIZ007>008-015-031500-
EASTERN UPPER MICHIGAN

CITY           SKY/WX    TMP DP  RH WIND       PRES   REMARKS
KINROSS        MOSUNNY   63  55  77 NW8       29.70R
MACKINAC ISLAN   N/A     64  58  82 W9        29.71R
NEWBERRY       MOSUNNY   63  56  76 W8        29.71S
S. S. MARIE    PTSUNNY   64  53  67 W12       29.68S
MUNISING         N/A     65  52  62 W5        29.72R
$$
MIZ004>006-011>014-085-031500-
CENTRAL UPPER MICHIGAN

CITY           SKY/WX    TMP DP  RH WIND       PRES   REMARKS
MANISTIQUE     MOSUNNY   63  55  77 NW6       29.73R
ESCANABA       SUNNY     66  54  63 W12       29.73S
MENOMINEE      SUNNY     66  54  63 NW5       29.76S
SAWYER-GWINN   PTSUNNY   61  50  67 W10       29.74R
$$
MIZ001>003-009>011-084-031500-
WESTERN UPPER MICHIGAN

CITY           SKY/WX    TMP DP  RH WIND       PRES   REMARKS
IRON MOUNTAIN  SUNNY     67  51  56 W8G17     29.75R
HOUGHTON       CLOUDY    59  52  77 NW9       29.72R
COPPER HARBOR    N/A     62  52  69 N9        29.70R
IRONWOOD       CLOUDY    61  50  67 W13       29.76S
$$

ABBREVIATIONS USED IN REMARKS
   TC - TEMPERATURE IN CELSIUS
  WCI - WIND CHILL INDEX
   HX - HEAT INDEX
  VSB - VISIBILITY




USA.gov is the U.S. government's official web portal to all federal, state and local government web resources and services.